This is the latest recevied weather packets stored in our database for station/object DB0RES-5. If no packets are shown the sender has not sent any weather packets the latest 1 day(s).
| Time | Temp. | Humidity | Pressure | Rain* | Wind** | Luminosity | Snow |
|---|---|---|---|---|---|---|---|
| 1778086564 | 9.44° C | 87% | 1011 hPa | 0 mm | - | - | - |
| 1778085359 | 9.44° C | 89% | 1011 hPa | 0 mm | - | - | - |
| 1778082346 | 9.44° C | 87% | 1010.9 hPa | 0 mm | - | - | - |
| 1778081141 | 9.44° C | 87% | 1010.9 hPa | 0 mm | - | - | - |
| 1778078128 | 8.89° C | 91% | 1010.6 hPa | 0 mm | - | - | - |
| 1778076923 | 8.89° C | 91% | 1010.5 hPa | 0 mm | - | - | - |
| 1778075718 | 8.89° C | 92% | 1010.5 hPa | 0 mm | - | - | - |
| 1778073970 | 8.89° C | 91% | 1010.4 hPa | 0 mm | - | - | - |
| 1778072765 | 8.89° C | 90% | 1010.3 hPa | 0 mm | - | - | - |
| 1778069752 | 8.89° C | 90% | 1010.1 hPa | 0 mm | - | - | - |
| 1778065534 | 8.33° C | 90% | 1009.9 hPa | 0 mm | - | - | - |
| 1778064329 | 8.33° C | 90% | 1009.8 hPa | 0 mm | - | - | - |
| 1778063726 | 8.33° C | 90% | 1009.8 hPa | 0 mm | - | - | - |
| 1778062521 | 8.33° C | 90% | 1009.5 hPa | 0 mm | - | - | - |
| 1778061918 | 8.33° C | 90% | 1009.4 hPa | 0 mm | - | - | - |
| 1778061316 | 8.33° C | 91% | 1009.4 hPa | 0 mm | - | - | - |
| 1778060171 | 7.78° C | 91% | 1009.3 hPa | 0 mm | - | - | - |
| 1778059568 | 7.78° C | 91% | 1009.3 hPa | 0 mm | - | - | - |
| 1778058966 | 7.78° C | 92% | 1009.2 hPa | 0 mm | - | - | - |
| 1778058363 | 7.78° C | 93% | 1009.1 hPa | 0 mm | - | - | - |
| 1778057760 | 7.78° C | 94% | 1009.1 hPa | 0 mm | - | - | - |
| 1778056555 | 7.78° C | 95% | 1009 hPa | 0 mm | - | - | - |
| 1778055350 | 8.33° C | 95% | 1008.9 hPa | 0 mm | - | - | - |
| 1778053542 | 8.33° C | 95% | 1008.7 hPa | 0 mm | - | - | - |
| 1778052939 | 8.89° C | 96% | 1008.5 hPa | 0 mm | - | - | - |
* Rain latest hour (hover to see other rain measurements)
** Current wind speed in m/s (hover to see current wind gust speed)